User: anonymous   Login
Location: Bluff Heights
(33.7692°N, 118.1592°W)
Time: 10:56:51
(UTC+00:00)
Language:

Cosmos 2082 Rocket - Orbit

View from above orbital plane
View from above orbital plane
View from above satellite
View from above satellite

Ground track
Ground track

The orbit data is extracted from the following two-line orbital elements,

1 20625U 90046B   21022.91688701  .00000239  00000-0  14901-3 0  9993
2 20625  70.9987 267.5504 0016499 268.6297  91.2936 14.14665198583657
Epoch (UTC): 22 January 2021 22:00:19
Eccentricity: 0.0016499
inclination: 70.9987°
perigee height: 831 km
apogee height: 855 km
right ascension of ascending node: 267.5504°
argument of perigee: 268.6297°
revolutions per day: 14.14665198
mean anomaly at epoch: 91.2936°
orbit number at epoch: 58365

The dashed part of the orbit path shows where the satellite is in the earth's shadow,  

DLR